Location: Unspecified
(35.6961°N, 0.0000°E)
Time: 22:02:35
(UTC+00:00)

S-56A Canister/Altair - Pass Details

Date: 05 June 2019
Orbit: 633 x 2499 km, 38.9° (Epoch: 25 June)

Event Time Altitude Azimuth Distance (km) Brightness Sun altitude
Rises 03:28:05 0° 284° (WNW) 3,489 10.6 -13.5°
Reaches altitude 10° 03:30:27 10° 276° (W) 2,731 9.9 -13.2°
Maximum altitude 03:36:32 39° 209° (SSW) 1,810 9.0 -12.2°
Drops below altitude 10° 03:45:22 10° 146° (SE) 3,969 11.1 -10.8°
Sets 03:49:33 0° 139° (SE) 5,269 11.8 -10.2°
